Weather History for KLAR - August, 2012

Change the Weather History Date:

Tuesday, August 28, 2012

  Actual Average Record
Temperature  
Mean Temperature 68 °F 60 °F  
Max Temperature 84 °F 76 °F 86 °F (1948)
Min Temperature 52 °F 44 °F 34 °F (2004)
Degree Days  
Heating Degree Days 0 5  
Month to date heating degree days 43 85  
Since 1 June heating degree days 137 395  
Since 1 July heating degree days 55 154  
Cooling Degree Days 3 0  
Month to date cooling degree days 38 17  
Year to date cooling degree days 206 64  
Since 1 June cooling degree days 206 64  
Growing Degree Days 17 (Base 50)    
Moisture  
Dew Point 43 °F    
Average Humidity 47    
Maximum Humidity 68    
Minimum Humidity 25    
Precipitation  
Precipitation T in 0.03 in 0.46 in (2014)
Month to date precipitation 0.32 1.12  
Year to date precipitation 4.40 8.04  
Sea Level Pressure  
Sea Level Pressure 30.11 in    
Wind  
Wind Speed 9 mph (SE)    
Max Wind Speed 33 mph    
Max Gust Speed 40 mph    
Visibility 10 miles    
Events Rain , Thunderstorm    
T = Trace of Precipitation, MM = Missing Value Source: NWS Daily Summary

Daily Weather History Graph

Daily Weather History Graph

Search for Another Location

Airport or City:

Trip Planner

Search our weather history database for the weather conditions in past years. The results will help you decide how hot, cold, wet, or windy it might be!

Date:

Astronomy

Aug. 28, 2012 Rise Set
Actual Time 6:25 AM MDT 7:41 PM MDT
Civil Twilight 5:56 AM MDT 8:09 PM MDT
Nautical Twilight 5:22 AM MDT 8:43 PM MDT
Astronomical Twilight 4:46 AM MDT 9:19 PM MDT
Moon 5:46 PM MDT (8/28) 3:16 AM MDT (8/28)
Length of Visible Light 14h 12m
Length of Day
13h 15m
Waxing Gibbous, 91% of the Moon is Illuminated
Aug 28
Waxing Gibbous
Aug 31
Full
Sep 8
Last Quarter
Sep 15
New
Sep 22
First Quarter

Hourly Weather History & Observations

Time (MDT) Temp. Dew Point Humidity Pressure Visibility Wind Dir Wind Speed Gust Speed Precip Events Conditions
12:53 AM 57.0 °F 42.1 °F 57% 30.03 in 10.0 mi SSE 5.8 mph - N/A   Clear
1:53 AM 54.0 °F 42.1 °F 64% 30.03 in 10.0 mi South 8.1 mph - N/A   Clear
2:53 AM 55.9 °F 41.0 °F 57% 30.05 in 10.0 mi South 9.2 mph - N/A   Clear
3:53 AM 52.0 °F 41.0 °F 66% 30.06 in 10.0 mi SSE 9.2 mph - N/A   Clear
4:53 AM 54.0 °F 41.0 °F 62% 30.07 in 10.0 mi ESE 6.9 mph - N/A   Clear
5:53 AM 57.0 °F 41.0 °F 55% 30.06 in 10.0 mi SE 8.1 mph - N/A   Clear
6:53 AM 60.1 °F 41.0 °F 49% 30.07 in 10.0 mi SSE 8.1 mph - N/A   Clear
7:53 AM 63.0 °F 43.0 °F 48% 30.09 in 10.0 mi SSE 6.9 mph - N/A   Clear
8:53 AM 71.1 °F 44.1 °F 38% 30.06 in 10.0 mi SSE 4.6 mph - N/A   Clear
9:53 AM 75.9 °F 44.1 °F 32% 30.06 in 10.0 mi South 3.5 mph - N/A   Clear
10:53 AM 79.0 °F 43.0 °F 28% 30.06 in 10.0 mi Variable 3.5 mph - N/A   Clear
11:53 AM 80.1 °F 43.0 °F 27% 30.05 in 10.0 mi NE 6.9 mph 17.3 mph N/A   Mostly Cloudy
12:53 PM 80.1 °F 44.1 °F 28% 30.03 in 10.0 mi ENE 6.9 mph - 0.00 in Thunderstorm Thunderstorm
1:06 PM 80.6 °F 44.6 °F 28% 30.38 in 10.0 mi NE 5.8 mph - N/A Thunderstorm Partly Cloudy
1:45 PM 77.0 °F 48.2 °F 36% 30.37 in 10.0 mi North 18.4 mph - 0.00 in Rain Light Rain
1:53 PM 80.1 °F 45.0 °F 29% 30.03 in 10.0 mi North 16.1 mph 24.2 mph 0.00 in Rain Light Rain
2:53 PM 81.0 °F 41.0 °F 24% 29.99 in 10.0 mi NE 6.9 mph - N/A   Clear
3:28 PM 82.4 °F 39.2 °F 21% 30.33 in 10.0 mi North 13.8 mph 20.7 mph N/A Thunderstorm Scattered Clouds
3:43 PM 80.6 °F 41.0 °F 24% 30.33 in 10.0 mi North 12.7 mph - N/A   Partly Cloudy
3:53 PM 79.0 °F 39.9 °F 25% 30.01 in 10.0 mi NNW 11.5 mph - N/A   Partly Cloudy
4:01 PM 78.8 °F 39.2 °F 24% 30.34 in 10.0 mi WSW 19.6 mph 28.8 mph N/A Thunderstorm Mostly Cloudy
4:12 PM 73.4 °F 44.6 °F 36% 30.34 in 10.0 mi West 17.3 mph - N/A   Mostly Cloudy
4:20 PM 73.4 °F 44.6 °F 36% 30.34 in 10.0 mi WSW 16.1 mph - N/A Thunderstorm Mostly Cloudy
4:48 PM 75.2 °F 41.0 °F 29% 30.35 in 10.0 mi WSW 17.3 mph 40.3 mph 0.00 in Rain Light Rain
4:53 PM 73.9 °F 44.1 °F 34% 30.04 in 10.0 mi NNE 13.8 mph 26.5 mph 0.00 in Rain Light Rain
5:53 PM 73.9 °F 46.0 °F 37% 30.03 in 10.0 mi ESE 6.9 mph 19.6 mph 0.00 in   Scattered Clouds
6:53 PM 73.0 °F 45.0 °F 37% 30.00 in 10.0 mi SE 10.4 mph - N/A   Clear
7:53 PM 66.9 °F 48.0 °F 51% 30.01 in 10.0 mi South 12.7 mph - N/A   Clear
8:53 PM 64.0 °F 46.9 °F 54% 30.00 in 10.0 mi SW 11.5 mph - N/A   Partly Cloudy
9:53 PM 61.0 °F 46.0 °F 58% 29.99 in 10.0 mi SE 8.1 mph - N/A   Clear
10:53 PM 60.1 °F 46.0 °F 60% 29.95 in 10.0 mi South 10.4 mph - N/A   Clear
11:53 PM 59.0 °F 45.0 °F 60% 29.95 in 10.0 mi South 9.2 mph - N/A   Clear